Погода в Келоуне

Канада     49°53′13″N   119°29′47″W
темп.,
°C
ветер,
м/с
пор.,
м/с
влажн.,
%
обл.,
%
осадки,
мм/ч
давл.,
гПа
погр.,
м
24 января, пн
пн2401:00−8ссз119418 0.0 102912
04:00−10ссз219635 0.0 102913
07:00−7зсз0195100 0.0 102821
10:00−1с248821 0.0 1026202
13:00−1св239252 0.0 1029399
16:00−2св129763 0.0 1030143
19:00−5ссз119779 0.0 103216
22:00−6ссз119676 0.1 103225
25 января, вт
вт2501:00−7сз019790 0.0 103219
04:00−7ссз119771 0.0 103222
07:00−9зсз019764 0.0 103114
10:00−5ююз1291100 0.0 1029242
13:00−2ю128691 0.0 1026357
16:00−3ююз1195100 0.0 102412
19:00−5юз1196100 0.0 102415
22:00−6сз1196100 0.0 102511
26 января, ср
ср2601:00−6зюз019758 0.0 102415
04:00−9сз119664 0.0 102612
07:00−10ссз119657 0.0 102627
10:00−3в138622 0.0 1026214
13:000ссв248722 0.0 1026350
16:00−3св239642 0.0 1031139
19:00−7ссз129644 0.0 103654
22:00−8ссз119658 0.0 103826
27 января, чт
чт2701:00−10сз119655 0.0 103924
04:00−10ссз119678 0.0 104023
07:00−11сз019859 0.0 104035
10:00−6ююв019142 0.0 1038177
13:00−3ю118322 0.0 1036388
16:00−4юз019392 0.0 103511
19:00−8сз1196100 0.0 103714
22:00−6сз019782 0.0 103623
28 января, пт
пт2801:00−7ююз1196100 0.0 103621
04:00−7ю1196100 0.0 1036120
07:00−7ююз0297100 0.0 1035143
10:00−5ююз2491100 0.1 1034309
13:00−3ююз2585100 0.0 1031415
16:00−4юз1295100 0.0 103148
19:00−7юз1397100 0.0 103260
22:00−6ююз2496100 0.0 103296